{"data":{"norad_id":68849,"intl_designator":"2026-094L","name":"STARLINK-37492","alt_names":[],"object_type":"PAYLOAD","status":"ACTIVE","operator":null,"country":"US","launch_date":"2026-04-26","launch_site_code":"AFWTR","launch_vehicle":null,"mission":null,"orbit_class":"UNKNOWN","rcs_meters":null,"size_class":null,"mass_kg":null,"dimensions":null,"purposes":["comms"],"wikipedia_slug":null,"has_3d_model":false,"image_url":null,"decayed_at":null,"tle_current":{"epoch":"2026-05-25T04:00:03.998880Z","epoch_age_seconds":64599,"freshness":"FRESH","line1":"1 68849U 26094L   26145.16671295 -.00000807  00000+0 -13182-4 0  9996","line2":"2 68849  97.2846 159.8862 0001418  90.2274  33.3698 15.49176702  5672","mean_motion":15.49176702,"eccentricity":0.0001418,"inclination_deg":97.2846,"raan_deg":159.8862,"arg_perigee_deg":90.2274,"mean_anomaly_deg":33.3698,"bstar":-1.3182e-5,"rev_number":567,"period_min":92.952598508675,"perigee_km":418.16938813464,"apogee_km":420.097093975,"semimajor_km":6797.2702410548,"source":"CELESTRAK","updated_at":"2026-05-25T13:38:22.047702Z"}}}